Stations météo

réclame
Mon MeteoGroup
Fyvie castle, Grande-Bretagne (99010): Température de l'air & dewpoint: 17.03.2019 15:00:00 - 23.03.2019 15:00:00 (GMT)Fyvie castle, Grande-Bretagne (99010): Quantités de précipitations: 17.03.2019 15:00:00 - 23.03.2019 15:00:00 (GMT)
Date & Time tt [°C] td [°C] rr [mm]
23.03.2019 15:00:00 10,8 -2,0 0,0
23.03.2019 14:00:00 9,0 -2,3 0,0
23.03.2019 13:00:00 10,0 -0,8 0,0
23.03.2019 12:00:00 9,1 -1,3 0,0
23.03.2019 11:00:00 8,7 -1,4 0,0
23.03.2019 10:00:00 7,6 -0,4 0,0
23.03.2019 09:00:00 6,4 -1,4 0,0
23.03.2019 08:00:00 5,0 -1,1 0,0
23.03.2019 07:00:00 2,9 -1,2 0,0
23.03.2019 06:00:00 3,6 -1,8 0,0
23.03.2019 05:00:00 3,4 -2,1 0,0
23.03.2019 04:00:00 2,9 -2,4 0,0
23.03.2019 03:00:00 3,1 -2,7 0,0
23.03.2019 02:00:00 3,9 -1,7 0,0
23.03.2019 01:00:00 4,3 -1,3 0,0
23.03.2019 00:00:00 4,8 -1,9 0,0
22.03.2019 23:00:00 5,0 -1,5 0,0
22.03.2019 22:00:00 5,2 -1,3 0,0
22.03.2019 21:00:00 5,9 0,0 0,0
22.03.2019 20:00:00 6,8 -0,4 0,0
22.03.2019 19:00:00 7,2 0,1 0,0
22.03.2019 18:00:00 8,5 1,7 0,0
22.03.2019 17:00:00 10,3 2,6 0,0
22.03.2019 16:00:00 12,2 3,4 0,0
22.03.2019 15:00:00 12,1 5,7 0,0
22.03.2019 14:00:00 13,3 6,3 0,0
22.03.2019 13:00:00 14,1 6,6 0,0
22.03.2019 12:00:00 12,8 6,8 0,0
22.03.2019 11:00:00 12,3 6,4 0,0
22.03.2019 10:00:00 11,6 6,5 0,0
22.03.2019 09:00:00 11,1 5,9 0,0
22.03.2019 08:00:00 10,2 6,4 0,0
22.03.2019 07:00:00 10,1 5,9 0,0
22.03.2019 06:00:00 10,3 5,7 0,0
22.03.2019 05:00:00 9,8 6,4 0,0
22.03.2019 04:00:00 9,6 6,1 0,0
22.03.2019 03:00:00 9,8 5,8 0,0
22.03.2019 02:00:00 10,1 7,1 0,0
22.03.2019 01:00:00 10,6 7,9 0,0
22.03.2019 00:00:00 10,5 8,7 0,0
21.03.2019 23:00:00 9,9 8,4 0,0
21.03.2019 22:00:00 8,9 7,9 0,0
21.03.2019 21:00:00 7,9 7,2 0,0
21.03.2019 20:00:00 8,0 6,9 0,0
21.03.2019 19:00:00 8,4 6,5 0,0
21.03.2019 18:00:00 8,4 6,0 0,0
21.03.2019 17:00:00 8,7 6,3 0,0
21.03.2019 16:00:00 9,5 5,9 0,0
21.03.2019 15:00:00 10,6 6,3 0,0
21.03.2019 14:00:00 12,5 7,3 0,0
21.03.2019 13:00:00 11,5 6,6 0,0
21.03.2019 12:00:00 10,5 6,4 0,0
21.03.2019 11:00:00 8,7 7,0 0,0
21.03.2019 10:00:00 9,6 8,4 0,2
21.03.2019 09:00:00 9,6 8,9 0,4
21.03.2019 08:00:00 10,1 8,5 0,2
21.03.2019 07:00:00 10,3 7,3 0,0
21.03.2019 06:00:00 10,6 7,0 0,0
21.03.2019 05:00:00 10,5 7,6 0,0
21.03.2019 04:00:00 7,6 6,0 0,0
21.03.2019 03:00:00 9,0 6,5 0,0
21.03.2019 02:00:00 11,2 7,3 0,0
21.03.2019 01:00:00 12,1 7,3 0,0
21.03.2019 00:00:00 12,8 7,2 0,0
20.03.2019 23:00:00 11,5 6,4 0,0
20.03.2019 22:00:00 12,6 7,6 0,0
20.03.2019 21:00:00 12,5 8,2 0,0
20.03.2019 20:00:00 12,4 7,6 0,0
20.03.2019 19:00:00 12,9 7,8 0,0
20.03.2019 18:00:00 13,8 7,7 0,0
20.03.2019 17:00:00 15,4 7,5 0,0
20.03.2019 16:00:00 15,6 7,3 0,0
20.03.2019 15:00:00 14,6 7,4 0,0
20.03.2019 14:00:00 14,3 7,4 0,0
20.03.2019 13:00:00 14,0 6,9 0,0
20.03.2019 12:00:00 11,9 7,7 0,0
20.03.2019 11:00:00 11,0 7,1 0,0
20.03.2019 10:00:00 9,7 6,8 0,0
20.03.2019 09:00:00 8,9 6,4 0,0
20.03.2019 08:00:00 7,6 6,7 0,0
20.03.2019 07:00:00 7,0 5,7 0,0
20.03.2019 06:00:00 7,1 5,2 0,0
20.03.2019 05:00:00 7,5 5,2 0,0
20.03.2019 04:00:00 8,0 4,6 0,0
20.03.2019 03:00:00 6,8 4,4 0,0
20.03.2019 02:00:00 6,5 3,4 0,0
20.03.2019 01:00:00 8,2 3,3 0,0
20.03.2019 00:00:00 9,2 4,0 0,0
19.03.2019 23:00:00 9,4 4,8 0,0
19.03.2019 22:00:00 10,3 5,7 0,0
19.03.2019 21:00:00 10,2 5,4 0,0
19.03.2019 20:00:00 11,0 6,0 0,0
19.03.2019 19:00:00 12,0 6,5 0,0
19.03.2019 18:00:00 11,9 6,7 0,0
19.03.2019 17:00:00 12,7 6,8 0,0
19.03.2019 16:00:00 13,3 7,6 0,0
19.03.2019 15:00:00 14,2 7,5 0,0
19.03.2019 14:00:00 14,0 6,6 0,0
19.03.2019 13:00:00 12,9 6,7 0,0
19.03.2019 12:00:00 10,3 6,0 0,0
19.03.2019 11:00:00 9,2 6,1 0,0
19.03.2019 10:00:00 6,6 6,4 0,0
19.03.2019 09:00:00 4,1 4,1 0,0
19.03.2019 08:00:00 2,0 2,0 0,2
19.03.2019 07:00:00 0,4 0,4 0,0
19.03.2019 06:00:00 -0,4 -0,4 0,0
19.03.2019 05:00:00 -0,4 -0,5 0,0
19.03.2019 04:00:00 -0,8 -0,9 0,0
19.03.2019 03:00:00 -1,8 -1,9 0,0
19.03.2019 02:00:00 -1,8 -2,0 0,0
19.03.2019 01:00:00 -1,8 -2,0 0,0
19.03.2019 00:00:00 -1,4 -1,7 0,0
18.03.2019 23:00:00 -1,1 -1,5 0,0
18.03.2019 22:00:00 -0,4 -1,0 0,0
18.03.2019 21:00:00 0,5 -0,4 0,0
18.03.2019 20:00:00 1,9 0,5 0,0
18.03.2019 19:00:00 3,9 1,6 0,0
18.03.2019 18:00:00 6,4 2,3 0,0
18.03.2019 17:00:00 8,5 2,3 0,0
18.03.2019 16:00:00 9,6 0,2 0,0
18.03.2019 15:00:00 9,3 0,5 0,0
18.03.2019 14:00:00 10,5 -0,2 0,0
18.03.2019 13:00:00 9,1 -1,6 0,0
18.03.2019 12:00:00 9,4 0,7 0,0
18.03.2019 11:00:00 8,0 -0,7 0,0
18.03.2019 10:00:00 6,9 0,2 0,0
18.03.2019 09:00:00 3,7 -0,8 0,0
18.03.2019 08:00:00 0,8 -1,2 0,0
18.03.2019 07:00:00 -0,3 -2,1 0,0
18.03.2019 06:00:00 -0,1 -2,6 0,0
18.03.2019 05:00:00 1,4 -1,5 0,0
18.03.2019 04:00:00 1,8 -1,5 0,0
18.03.2019 03:00:00 2,9 -0,6 0,0
18.03.2019 02:00:00 3,0 0,0 0,0
18.03.2019 01:00:00 3,1 0,2 0,0
18.03.2019 00:00:00 3,3 0,6 0,0
17.03.2019 23:00:00 3,0 0,7 0,0
17.03.2019 22:00:00 3,7 0,1 0,2
17.03.2019 21:00:00 3,9 0,1 0,0
17.03.2019 20:00:00 4,3 0,4 0,2
17.03.2019 19:00:00 5,2 -0,8 0,0
17.03.2019 18:00:00 5,0 0,5 0,0
17.03.2019 17:00:00 5,5 0,5 0,0
17.03.2019 16:00:00 5,3 1,1 0,0
17.03.2019 15:00:00 7,3 2,2 0,0

tt = Température de l'air
td = dewpoint
rr = Quantités de précipitations

stations d'obs. à proximité